This demonstration page uses our WeatherBlox Daily Observations layout. Learn more.

Left ArrowRight Arrow

41.12389, -100.76542

Hourly Observations for September 25, 2017

Temp ( °F °C ) Dew Point ( °F °C ) Humidity (%) Winds ( mph kmh ) Pressure ( in mb ) Visibility ( mi km ) Precip ( " mm )
12:40 am 00:40 Cloudy 51 10.6 49 9.4 92 92 NE 15 24 30.00 1016 10 16 0.01 0.25
12:53 am 00:53 Cloudy 51 10.6 49 9.4 92 92 NE 15 24 30.00 1016 10 16 0.01 0.25
1:17 am 01:17 Cloudy with Heavy Rain 51 10.6 49 9.4 92 92 NE 12 19 30.00 1016 5 8 0.05 1.27
1:31 am 01:31 Cloudy with Heavy Rain 51 10.6 49 9.4 92 92 ENE 12 19 30.03 1017 3 4 0.13 3.30
1:43 am 01:43 Cloudy with Heavy Rain 50 10 49 9.4 96 96 NE 10 17 30.00 1016 4 6 0.22 5.59
1:51 am 01:51 Cloudy with Rain 52 11 48 9 88 88 ENE 8 13 30.03 1017 6 10 0.23 5.84
1:53 am 01:53 Cloudy with Rain 51 10.6 49 9.4 92 92 NE 9 15 30.00 1016 6 10 0.24 6.10
2:26 am 02:26 Cloudy with Rain 51 10.6 49 9.4 92 92 ENE 12 19 30.03 1017 8 13 0.05 1.27
2:53 am 02:53 Cloudy with Light Rain 51 10.6 49 9.4 92 92 W 16 26 30.05 1018 9 14 0.07 1.78
3:00 am 03:00 Cloudy with Heavy Rain 50 10 49 9.4 96 96 NW 13 20 30.06 1018 4 6 0.01 0.25
3:08 am 03:08 Cloudy with Rain 50 10 49 9.4 96 96 NW 9 15 30.06 1018 3 5 0.04 1.02
3:18 am 03:18 Cloudy with Rain 50 10 49 9.4 96 96 NW 10 17 30.06 1018 4 6 0.06 1.52
3:31 am 03:31 Cloudy with Light Rain 50 10 49 9.4 96 96 NNW 10 17 30.06 1018 7 11 0.08 2.03
3:53 am 03:53 Cloudy with Light Rain 50 10 48 8.9 93 93 NNE 12 19 30.01 1016 5 8 0.09 2.29
4:53 am 04:53 Cloudy with Light Rain 50 10 48 8.9 93 93 NE 7 11 30.01 1016 10 16 0.02 0.51
5:16 am 05:16 Cloudy 50 10 48 8.9 93 93 N 6 9 30.03 1017 10 16 0.00 0.03
5:36 am 05:36 Mostly Cloudy 49 9.4 47 8.3 93 93 NE 7 11 30.03 1017 10 16 0.00 0.03
5:46 am 05:46 Partly Cloudy 48 8.9 46 7.8 93 93 N 7 11 30.03 1017 10 16 0.00 0.03
5:53 am 05:53 Mostly Clear 48 8.9 46 7.8 93 93 N 7 11 30.02 1017 10 16 0.00 0.03
6:07 am 06:07 Mostly Cloudy 48 8.9 46 7.8 93 93 NNW 6 9 30.03 1017 10 16 0.00 0.00
6:53 am 06:53 Cloudy 49 9.4 47 8.3 93 93 NNW 7 11 30.06 1018 10 16 0.00 0.00
7:40 am 07:40 Cloudy 49 9.4 46 7.8 90 90 N 13 20 30.09 1019 10 16 0.00 0.00
7:53 am 07:53 Cloudy 49 9.4 47 8.3 93 93 NNE 12 19 30.04 1017 10 16 0.00 0.00
8:53 am 08:53 Cloudy 49 9.4 46 7.8 90 90 N 7 11 30.05 1018 10 16 0.00 0.00
9:11 am 09:11 Cloudy 49 9.4 46 7.8 90 90 NNW 8 13 30.09 1019 10 16 0.00 0.00
9:53 am 09:53 Cloudy 50 10 46 7.8 86 86 NNE 8 13 30.10 1019 10 16 0.00 0.00
10:53 am 10:53 Cloudy 50 10 47 8.3 89 89 NNE 7 11 30.07 1018 10 16 0.00 0.03
11:53 am 11:53 Cloudy 50 10 47 8.3 89 89 N 12 19 30.06 1018 10 16 0.00 0.03
12:53 pm 12:53 Cloudy 51 10.6 47 8.3 86 86 N 13 20 30.03 1017 10 16 0.00 0.03
1:53 pm 13:53 Cloudy with Light Rain 52 11.1 48 8.9 86 86 N 14 22 30.03 1017 10 16 0.01 0.25
2:53 pm 14:53 Cloudy 52 11.1 48 8.9 86 86 NNE 10 17 30.06 1018 10 16 0.00 0.03
3:53 pm 15:53 Cloudy 52 11.1 48 8.9 86 86 N 9 15 30.05 1018 10 16 0.00 0.00
4:53 pm 16:53 Cloudy with Light Rain 50 10 48 8.9 93 93 N 9 15 30.04 1017 9 14 0.02 0.51
5:01 pm 17:01 Cloudy with Light Rain 51 10.6 48 8.9 89 89 N 9 15 30.06 1018 9 14 0.00 0.03
5:11 pm 17:11 Cloudy with Light Rain 51 10.6 48 8.9 89 89 N 9 15 30.06 1018 7 11 0.01 0.25
5:39 pm 17:39 Cloudy 51 10.6 48 8.9 89 89 N 10 17 30.06 1018 10 16 0.01 0.25
5:53 pm 17:53 Cloudy 51 10.6 48 8.9 89 89 N 9 15 30.05 1018 10 16 0.01 0.25
6:09 pm 18:09 Cloudy 50 10 48 8.9 93 93 NNW 7 11 30.06 1018 10 16 0.00 0.00
6:35 pm 18:35 Cloudy with Light Rain 50 10 48 8.9 93 93 N 7 11 30.06 1018 10 16 0.00 0.03
6:44 pm 18:44 Cloudy with Light Rain 50 10 47 8.3 89 89 N 8 13 30.06 1018 9 14 0.00 0.03
6:53 pm 18:53 Cloudy with Heavy Rain 50 10 47 8.3 89 89 N 9 15 30.05 1018 3 4 0.03 0.76
7:14 pm 19:14 Cloudy with Rain 49 9.4 47 8.3 93 93 N 9 15 30.06 1018 3 5 0.07 1.78
7:51 pm 19:51 Cloudy with Light Rain 49 9.4 48 8.9 97 97 N 8 13 30.07 1018 7 11 0.14 3.56
8:26 pm 20:26 Cloudy with Light Rain 49 9.4 47 8.3 93 93 N 8 13 30.06 1018 10 16 0.02 0.51
8:49 pm 20:49 Cloudy 48 9 46 8 94 94 N 7 11 30.09 1019 10 16 0.02 0.51
8:53 pm 20:53 Cloudy 49 9.4 47 8.3 93 93 N 7 11 30.09 1019 10 16 0.02 0.51
9:17 pm 21:17 Cloudy 49 9.4 47 8.3 93 93 NNE 9 15 30.06 1018 10 16 0.00 0.00
9:53 pm 21:53 Cloudy with Light Rain 49 9.4 46 7.8 90 90 NE 5 7 30.10 1019 10 16 0.00 0.03
10:35 pm 22:35 Cloudy with Light Rain 49 9.4 47 8.3 93 93 N 6 9 30.12 1020 10 16 0.01 0.25
10:53 pm 22:53 Cloudy 49 9.4 47 8.3 93 93 N 5 7 30.11 1020 10 16 0.01 0.25
11:53 pm 23:53 Cloudy 49 9.4 47 8.3 93 93 N 7 11 30.14 1021 10 16 0.00 0.03

Powered by AerisWeather